Location: Unspecified
(0.0000°N, 0.0000°E)
Time: 19:09:04
(UTC+01:00)

Ariane H10-3 - Visible Passes

Search period start: 01 February 2015 00:00
Search period end: 11 February 2015 00:00
Orbit: 214 x 21653 km, 7.2° (Epoch: 31 January)

Date Brightness Start Highest point End Pass type
(mag) Time Alt. Az. Time Alt. Az. Time Alt. Az.
01 Feb 5.1 05:17:31 47° NW 05:20:14 63° N 06:30:15 10° E visible
02 Feb 6.2 06:27:54 13° WNW 06:38:04 71° N 11:06:42 10° E visible
03 Feb 6.3 15:20:18 10° W 19:38:38 71° S 19:48:06 10° E visible
04 Feb 5.0 20:02:01 10° W 20:54:04 69° S 20:57:18 37° ESE visible
05 Feb 6.5 03:37:47 25° ENE 03:37:47 25° ENE 03:45:50 10° E visible
05 Feb 5.2 21:50:18 10° W 22:05:10 50° WSW 22:05:10 50° WSW visible
06 Feb 5.1 04:45:30 58° N 04:45:43 58° N 05:23:17 10° E visible
06 Feb 7.0 23:11:52 10° W 23:12:20 11° W 23:12:20 11° W visible
07 Feb 5.7 05:52:31 27° WNW 05:58:48 68° N 09:53:41 10° E visible
09 Feb 5.8 16:42:29 10° W 20:06:32 72° S 20:13:24 15° E visible
10 Feb 4.5 20:44:20 10° W 21:16:42 73° S 21:17:55 61° ESE visible
